Big Delta, AK

3:02 PM AKDT on July 26, 2017 (GMT -0800)
Allen Army Air Field

Weather History for PABI - August, 2013

Change the Weather History Date:

Wednesday, August 7, 2013

  Actual Average Record
Temperature  
Mean Temperature 66 °F -  
Max Temperature 78 °F 64 °F 79 °F (2004)
Min Temperature 54 °F 48 °F 37 °F (2000)
Cooling Degree Days 1    
Growing Degree Days 16 (Base 50)    
Moisture  
Dew Point 38 °F    
Average Humidity 32    
Maximum Humidity 53    
Minimum Humidity 14    
Precipitation  
Precipitation 0.00 in - - ()
Sea Level Pressure  
Sea Level Pressure 29.76 in    
Wind  
Wind Speed 11 mph (ESE)    
Max Wind Speed 20 mph    
Max Gust Speed 30 mph    
Visibility 10 miles    
Events      
Averages and records for this station are not official NWS values.
T = Trace of Precipitation, MM = Missing Value Source: NWS Daily Summary

Daily Weather History Graph

Daily Weather History Graph

Search for Another Location

Airport or City:

Trip Planner

Search our weather history database for the weather conditions in past years. The results will help you decide how hot, cold, wet, or windy it might be!

Date:

Astronomy

Aug. 07, 2013 Rise Set
Actual Time 5:11 AM AKDT 10:23 PM AKDT
Civil Twilight 3:56 AM AKDT 11:36 PM AKDT
Nautical Twilight 2:21 AM AKDT 1:16 AM AKDT
Astronomical Twilight Sun does not set Sun does not set
Moon 6:57 AM AKDT (8/7) 9:35 PM AKDT (8/7)
Length of Visible Light 19h 39m
Length of Day
17h 11m
New Moon, 1% of the Moon is Illuminated
Aug 7
New Moon
Aug 14
First Quarter
Aug 20
Full
Aug 28
Last Quarter
Sep 5
New

Hourly Weather History & Observations

Time (AKDT) Temp. Dew Point Humidity Pressure Visibility Wind Dir Wind Speed Gust Speed Precip Events Conditions
12:53 AM 66.0 °F 39.0 °F 37% 29.84 in 10.0 mi South 12.7 mph - N/A   Clear
1:53 AM 66.9 °F 39.0 °F 36% 29.84 in 10.0 mi South 13.8 mph - N/A   Clear
2:53 AM 63.0 °F 39.9 °F 43% 29.85 in 10.0 mi East 6.9 mph - N/A   Clear
3:53 AM 60.1 °F 37.9 °F 44% 29.84 in 10.0 mi ESE 9.2 mph - N/A   Clear
4:53 AM 57.9 °F 37.9 °F 47% 29.85 in 10.0 mi SE 3.5 mph - N/A   Clear
5:53 AM 59.0 °F 37.9 °F 46% 29.83 in 10.0 mi Calm Calm - N/A   Clear
6:53 AM 57.0 °F 39.9 °F 53% 29.83 in 10.0 mi Calm Calm - N/A   Clear
7:53 AM 60.1 °F 39.9 °F 47% 29.82 in 10.0 mi ESE 3.5 mph - N/A   Clear
8:53 AM 64.0 °F 43.0 °F 46% 29.80 in 10.0 mi ESE 12.7 mph - N/A   Clear
9:53 AM 69.1 °F 44.1 °F 40% 29.79 in 10.0 mi ESE 15.0 mph - N/A   Clear
10:53 AM 73.0 °F 44.1 °F 35% 29.78 in 10.0 mi East 11.5 mph - N/A   Clear
11:53 AM 75.9 °F 41.0 °F 29% 29.76 in 10.0 mi East 12.7 mph - N/A   Scattered Clouds
12:53 PM 75.9 °F 41.0 °F 29% 29.76 in 9.0 mi East 13.8 mph - N/A   Mostly Cloudy
1:53 PM 75.0 °F 42.1 °F 31% 29.75 in 10.0 mi East 13.8 mph - N/A   Mostly Cloudy
2:51 PM 77.0 °F 41.0 °F 28% 29.75 in 10.0 mi East 16.1 mph - N/A   Mostly Cloudy
2:53 PM 75.9 °F 41.0 °F 29% 29.73 in 10.0 mi East 15.0 mph - N/A   Scattered Clouds
3:53 PM 75.0 °F 41.0 °F 29% 29.73 in 6.0 mi East 19.6 mph 27.6 mph N/A   Smoke
4:53 PM 75.0 °F 41.0 °F 29% 29.71 in 9.0 mi East 17.3 mph - N/A   Smoke
5:53 PM 77.0 °F 30.0 °F 18% 29.69 in 10.0 mi SSE 16.1 mph 24.2 mph N/A   Mostly Cloudy
6:53 PM 78.1 °F 28.0 °F 16% 29.68 in 10.0 mi SSE 15.0 mph 27.6 mph N/A   Mostly Cloudy
7:53 PM 73.4 °F 28.4 °F 19% 29.68 in 10.0 mi SE 11.5 mph 20.7 mph N/A   Mostly Cloudy
8:53 PM 72.0 °F 35.1 °F 26% 29.68 in 10.0 mi East 9.2 mph - N/A   Mostly Cloudy
9:53 PM 70.0 °F 32.0 °F 25% 29.67 in 10.0 mi SE 11.5 mph - N/A   Partly Cloudy
10:53 PM 69.1 °F 30.0 °F 23% 29.67 in 10.0 mi SSE 16.1 mph 21.9 mph N/A   Clear
11:53 PM 69.1 °F 30.9 °F 24% 29.67 in 10.0 mi SSE 19.6 mph 29.9 mph N/A   Clear